Content
SEND FEEDBACK

Daily
Averages
Monthly
Summary
France

BLAGNAC, FRANCE


Home > Europe > France
Elevation: 499 feet     Latitude: 43 38N     Longitude: 001 22E

WEATHER
 
SELECT A DAY
Number of Records: 308,343;   Date Range: 7/1/96 - 9/30/14
 
SHARE

PRINT THIS DATA

[ ← Previous Day ]
WEATHER ALMANAC - FEBRUARY 13, 2013
[ Next Day → ]
[ °C ]   °F
Weather ElementAverageHighLow
Temperature43.1 °F46.4 °F (1:00 pm)39.2 °F (5:00 am)
Dewpoint36.5 °F37.4 °F (12:30 am)35 °F (1:00 pm)
Humidity77.6 %93 % (5:00 am)56 % (1:00 pm)
Barometer30.15 in30.23 in (7:00 pm)30.04 in (12:30 am)
Wind Speed8.6 mph15 mph (12:30 pm)
Weather ElementAverage
Visibility7.1 mi
Wind DirectionW (274.5 °)

Weather ElementTotal
Precipitation---
Heating Degree Days22.2 (Base 65)
Averaged from 51 records on February 13, 2013
WEATHER CONDITIONS BREAKOUT
WIND DIRECTION BREAKOUT
WEATHER BY HOUR - FEBRUARY 13, 2013
[ °C ]   °F
Local TimeTemperatureDewpointHumidityBarometerVisibilityWind DirectionWind SpeedGust SpeedPrecipitationEventsConditions
12:30 AM41.0 °F37.4 °F87 %30.04 in6.2 miWNW (300°)8.1 mphOvercast
1:00 AM41.0 °F37.0 °F81 %30.08 in28.0 miWNW (290°)8.1 mphClear
1:00 AM41.0 °F37.4 °F87 %30.04 in6.2 miWNW (290°)8.1 mphMostly Cloudy
1:30 AM41.0 °F37.4 °F87 %30.06 in6.2 miWest (280°)9.2 mphOvercast
2:00 AM41.0 °F37.4 °F87 %30.06 in6.2 miWest (280°)10.4 mphMostly Cloudy
2:30 AM41.0 °F37.4 °F87 %30.06 in6.2 miWNW (290°)9.2 mphOvercast
3:00 AM41.0 °F37.4 °F87 %30.06 in6.2 miWNW (290°)9.2 mphOvercast
3:30 AM41.0 °F37.4 °F87 %30.06 in6.2 miWest (280°)9.2 mphOvercast
4:00 AM41.0 °F37.4 °F87 %30.06 in6.2 miWNW (290°)9.2 mphMostly Cloudy
4:30 AM41.0 °F37.4 °F87 %30.06 in6.2 miWNW (300°)13.8 mphRainLight Rain
5:00 AM39.2 °F37.4 °F93 %30.09 in6.2 miWNW (290°)8.1 mphOvercast
5:30 AM41.0 °F37.4 °F87 %30.09 in6.2 miWest (280°)9.2 mph
6:00 AM41.0 °F37.4 °F87 %30.09 in6.2 miWest (280°)10.4 mphOvercast
6:30 AM41.0 °F37.4 °F87 %30.09 in6.2 miWest (270°)11.5 mphOvercast
7:00 AM40.0 °F37.0 °F86 %30.13 in12.0 miWest (270°)11.5 mphClear
7:00 AM41.0 °F37.4 °F87 %30.09 in6.2 miWest (270°)11.5 mphOvercast
7:30 AM41.0 °F37.4 °F87 %30.12 in6.2 miWest (270°)12.7 mph
8:00 AM41.0 °F37.4 °F87 %30.12 in6.2 miWest (270°)11.5 mph
8:30 AM41.0 °F37.4 °F87 %30.12 in6.2 miWest (280°)9.2 mph
9:00 AM41.0 °F37.4 °F87 %30.15 in6.2 miWest (280°)10.4 mph
9:30 AM41.0 °F37.4 °F87 %30.15 in6.2 miWNW (290°)8.1 mph
10:00 AM42.8 °F37.4 °F81 %30.15 in6.2 miNW (310°)8.1 mph
10:30 AM42.8 °F37.4 °F81 %30.15 in6.2 miWNW (300°)10.4 mph
11:00 AM42.8 °F37.4 °F81 %30.18 in6.2 miNW (310°)10.4 mphOvercast
11:30 AM42.8 °F37.4 °F81 %30.18 in6.2 miWNW (300°)11.5 mphOvercast
12:00 PM44.6 °F35.6 °F71 %30.18 in6.2 miWNW (300°)12.7 mphOvercast
12:30 PM44.6 °F35.6 °F71 %30.18 in6.2 miNW (310°)15.0 mphOvercast
1:00 PM46.0 °F35.0 °F56 %30.21 in19.0 miNW (310°)15.0 mphClear
1:00 PM46.4 °F35.6 °F66 %30.18 in6.2 miNW (310°)15.0 mphOvercast
1:30 PM46.4 °F35.6 °F66 %30.18 in6.2 miNNW (330°)12.7 mphOvercast
2:00 PM46.4 °F35.6 °F66 %30.18 in6.2 miNorth (350°)10.4 mphOvercast
2:30 PM46.4 °F35.6 °F66 %30.18 in6.2 miNW (320°)10.4 mphOvercast
3:00 PM46.4 °F35.6 °F66 %30.18 in6.2 miNNW (340°)9.2 mphOvercast
3:30 PM46.4 °F35.6 °F66 %30.18 in6.2 miNNW (330°)9.2 mph
4:00 PM46.4 °F35.6 °F66 %30.18 in6.2 miNNW (330°)8.1 mph
4:30 PM46.4 °F35.6 °F66 %30.18 in6.2 miNW (320°)9.2 mph
5:00 PM46.4 °F35.6 °F66 %30.18 in6.2 miNW (320°)9.2 mph
5:30 PM46.4 °F35.6 °F66 %30.18 in6.2 miNW (310°)6.9 mph
6:00 PM44.6 °F35.6 °F71 %30.18 in6.2 miNW (310°)4.6 mphMostly Cloudy
6:30 PM44.6 °F35.6 °F71 %30.18 in6.2 miWNW (300°)4.6 mphOvercast
7:00 PM43.0 °F35.0 °F65 %30.23 in11.0 miWNW (300°)4.6 mphClear
7:00 PM42.8 °F35.6 °F76 %30.21 in6.2 miWNW (300°)4.6 mphMostly Cloudy
7:30 PM44.6 °F35.6 °F71 %30.21 in6.2 miNW (310°)3.5 mphOvercast
8:00 PM44.6 °F35.6 °F71 %30.21 in6.2 miWNW (300°)3.5 mphMostly Cloudy
8:30 PM44.6 °F35.6 °F71 %30.21 in6.2 miVariable3.5 mphOvercast
9:00 PM42.8 °F35.6 °F76 %30.21 in6.2 miWNW (290°)3.5 mphOvercast
9:30 PM42.8 °F35.6 °F76 %30.21 in6.2 miWest (270°)3.5 mphOvercast
10:00 PM42.8 °F35.6 °F76 %30.21 in6.2 miWest (280°)3.5 mphOvercast
10:30 PM44.6 °F35.6 °F71 %30.21 in6.2 miVariable2.3 mphOvercast
11:00 PM42.8 °F35.6 °F76 %30.21 in6.2 miVariable1.2 mphOvercast
11:30 PM42.8 °F37.4 °F81 %30.21 in6.2 miVariable2.3 mphMostly Cloudy
Hourly data recorded from LFBO, located miles away from Blagnac, France







STORIES FROM OUR PARTNERS